TimeEST,TemperatureF,Dew PointF,Humidity,Sea Level PressureIn,VisibilityMPH,Wind Direction,Wind SpeedMPH,Gust SpeedMPH,PrecipitationIn,Events,Conditions,WindDirDegrees,DateUTC
12:54 AM,33.1,24.1,70,29.83,10.0,WSW,4.6,-,N/A,,Overcast,240,2012-02-18 05:54:00
1:54 AM,33.1,21.9,64,29.83,10.0,WSW,8.1,-,N/A,,Overcast,240,2012-02-18 06:54:00
2:54 AM,33.1,25.0,72,29.83,2.0,West,9.2,19.6,0.00,Snow,Light Snow,260,2012-02-18 07:54:00
3:04 AM,32.0,26.6,80,29.81,8.0,West,10.4,-,0.00,Snow,Light Snow,260,2012-02-18 08:04:00
3:54 AM,34.0,21.9,61,29.83,10.0,West,13.8,21.9,0.00,,Clear,260,2012-02-18 08:54:00
4:54 AM,34.0,19.9,56,29.85,10.0,West,6.9,-,N/A,,Mostly Cloudy,280,2012-02-18 09:54:00
5:54 AM,33.1,19.9,59,29.86,10.0,Variable,6.9,-,N/A,,Partly Cloudy,0,2012-02-18 10:54:00
7:54 AM,34.0,23.0,64,29.88,10.0,South,3.5,-,N/A,,Overcast,190,2012-02-18 12:54:00
9:54 AM,35.1,18.0,50,29.87,10.0,West,9.2,-,N/A,,Clear,280,2012-02-18 14:54:00
10:54 AM,37.0,19.0,48,29.86,10.0,NW,8.1,18.4,N/A,,Mostly Cloudy,320,2012-02-18 15:54:00
11:54 AM,37.0,18.0,46,29.85,10.0,West,11.5,24.2,N/A,,Clear,280,2012-02-18 16:54:00
12:54 PM,37.9,17.1,43,29.83,10.0,WNW,11.5,17.3,N/A,,Mostly Cloudy,300,2012-02-18 17:54:00
1:54 PM,39.0,18.0,43,29.83,10.0,NW,8.1,-,N/A,,Partly Cloudy,320,2012-02-18 18:54:00
2:54 PM,39.0,18.0,43,29.83,10.0,Variable,4.6,-,N/A,,Scattered Clouds,0,2012-02-18 19:54:00
4:54 PM,37.0,16.0,42,29.83,10.0,NW,6.9,-,N/A,,Partly Cloudy,310,2012-02-18 21:54:00
5:54 PM,36.0,16.0,44,29.86,10.0,WNW,4.6,-,N/A,,Partly Cloudy,300,2012-02-18 22:54:00
6:54 PM,35.1,16.0,46,29.88,10.0,WNW,3.5,-,N/A,,Clear,290,2012-02-18 23:54:00
9:54 PM,32.0,18.0,56,29.92,10.0,West,8.1,-,N/A,,Clear,280,2012-02-19 02:54:00
10:54 PM,32.0,16.0,52,29.92,10.0,WNW,12.7,16.1,N/A,,Clear,300,2012-02-19 03:54:00
11:54 PM,28.9,16.0,58,29.92,10.0,Calm,Calm,-,N/A,,Clear,0,2012-02-19 04:54:00